Location: Izdebno
(52.6670°N, 16.2170°E)
Time: 03:02:26
(UTC+02:00)

Transit 4A - Pass Details

Date: 22 February 2024
Orbit: 871 x 972 km, 66.8° (Epoch: 22 April)

Event Time Altitude Azimuth Distance (km) Brightness Sun altitude
Rises 00:55:24 0° 171° (S) 3,606 - -46.7°
Reaches altitude 10° 00:58:29 10° 157° (SSE) 2,649 - -46.6°
Maximum altitude 01:03:05 22° 108° (ESE) 1,888 - -46.4°
Drops below altitude 10° 01:07:37 10° 59° (ENE) 2,609 - -46.1°
Exits shadow 01:07:40 10° 59° (ENE) 2,621 10.6 -46.1°
Sets 01:10:37 0° 46° (NE) 3,537 11.6 -46.0°
